owner,sensor,date,latitude,longitude,vertical_datum,direction_of_sea_water_velocity,sea_water_speed,upward_sea_water_velocity,qcFlag 
TABS,ioos:station:wmo:42049:1,2004-01-01T00:00:00Z,28.3507,-96.0058,2.0,259.4506636,57.73579912,-99999.0,'11111222,11111222,99999999' 
TABS,ioos:station:wmo:42049:1,2004-01-01T00:30:00Z,28.3507,-96.0058,2.0,259.4887721,51.74831398,-99999.0,'11111222,11111222,99999999' 
TABS,ioos:station:wmo:42049:1,2004-01-01T01:00:00Z,28.3507,-96.0058,2.0,260.3561475,50.44279334,-99999.0,'11111222,11111222,99999999' 
TABS,ioos:station:wmo:42049:1,2004-01-01T01:30:00Z,28.3507,-96.0058,2.0,255.6602481,51.80390912,-99999.0,'11111222,11111222,99999999' 
TABS,ioos:station:wmo:42049:1,2004-01-01T02:00:00Z,28.3507,-96.0058,2.0,263.6269117,50.63286285,-99999.0,'11111222,11111222,99999999' 
TABS,ioos:station:wmo:42049:1,2004-01-01T02:30:00Z,28.3507,-96.0058,2.0,259.7407742,53.45456388,-99999.0,'11111222,11111222,99999999' 
TABS,ioos:station:wmo:42049:1,2004-01-01T03:00:00Z,28.3507,-96.0058,2.0,259.3806468,50.41335736,-99999.0,'11111222,11111222,99999999' 
TABS,ioos:station:wmo:42049:1,2004-01-01T03:30:00Z,28.3507,-96.0058,2.0,263.8175555,53.20942492,-99999.0,'11111222,11111222,99999999' 
TABS,ioos:station:wmo:42049:1,2004-01-01T04:00:00Z,28.3507,-96.0058,2.0,252.8232915,46.93319934,-99999.0,'11111222,11111222,99999999' 
TABS,ioos:station:wmo:42049:1,2004-01-01T04:30:00Z,28.3507,-96.0058,2.0,254.971795,47.09049267,-99999.0,'11111222,11111222,99999999' 
TABS,ioos:station:wmo:42049:1,2004-01-01T05:00:00Z,28.3507,-96.0058,2.0,252.2264417,45.17614968,-99999.0,'11111222,11111222,99999999' 
TABS,ioos:station:wmo:42049:1,2004-01-01T05:30:00Z,28.3507,-96.0058,2.0,244.18894,46.87651971,-99999.0,'11111222,11111222,99999999' 
TABS,ioos:station:wmo:42049:1,2004-01-01T06:00:00Z,28.3507,-96.0058,2.0,248.2065363,38.38322681,-99999.0,'11111222,11111222,99999999' 
TABS,ioos:station:wmo:42049:1,2004-01-01T06:30:00Z,28.3507,-96.0058,2.0,256.5161037,43.74576094,-99999.0,'11111222,11111222,99999999' 
TABS,ioos:station:wmo:42049:1,2004-01-01T07:00:00Z,28.3507,-96.0058,2.0,254.6057104,43.81180777,-99999.0,'11111222,11111222,99999999' 
TABS,ioos:station:wmo:42049:1,2004-01-01T07:30:00Z,28.3507,-96.0058,2.0,256.7698822,42.55951715,-99999.0,'11111222,11111222,99999999' 
TABS,ioos:station:wmo:42049:1,2004-01-01T08:00:00Z,28.3507,-96.0058,2.0,247.0751618,34.58125793,-99999.0,'11111222,11111222,99999999' 
TABS,ioos:station:wmo:42049:1,2004-01-01T08:30:00Z,28.3507,-96.0058,2.0,259.47305,40.45077255,-99999.0,'11111222,11111222,99999999' 
TABS,ioos:station:wmo:42049:1,2004-01-01T09:00:00Z,28.3507,-96.0058,2.0,251.1872501,36.96466556,-99999.0,'11111222,11111222,99999999' 
TABS,ioos:station:wmo:42049:1,2004-01-01T09:30:00Z,28.3507,-96.0058,2.0,254.966734,41.83159691,-99999.0,'11111222,11111222,99999999' 
TABS,ioos:station:wmo:42049:1,2004-01-01T10:00:00Z,28.3507,-96.0058,2.0,255.592705,45.73832529,-99999.0,'11111222,11111222,99999999' 
TABS,ioos:station:wmo:42049:1,2004-01-01T10:30:00Z,28.3507,-96.0058,2.0,255.6305528,43.84147922,-99999.0,'11111222,11111222,99999999' 
TABS,ioos:station:wmo:42049:1,2004-01-01T11:00:00Z,28.3507,-96.0058,2.0,256.4383905,50.0246919,-99999.0,'11111222,11111222,99999999' 
TABS,ioos:station:wmo:42049:1,2004-01-01T11:30:00Z,28.3507,-96.0058,2.0,255.5403566,50.26202742,-99999.0,'11111222,11111222,99999999' 
TABS,ioos:station:wmo:42049:1,2004-01-01T12:00:00Z,28.3507,-96.0058,2.0,249.1427151,51.93304343,-99999.0,'11111222,11111222,99999999' 
TABS,ioos:station:wmo:42049:1,2004-01-01T12:30:00Z,28.3507,-96.0058,2.0,245.3950336,56.08210588,-99999.0,'11111222,11111222,99999999' 
TABS,ioos:station:wmo:42049:1,2004-01-01T13:00:00Z,28.3507,-96.0058,2.0,246.5002911,58.78538679,-99999.0,'11111222,11111222,99999999' 
TABS,ioos:station:wmo:42049:1,2004-01-01T13:30:00Z,28.3507,-96.0058,2.0,241.1604749,58.38052072,-99999.0,'11111222,11111222,99999999' 
TABS,ioos:station:wmo:42049:1,2004-01-01T14:00:00Z,28.3507,-96.0058,2.0,242.9190312,61.13210122,-99999.0,'11111222,11111222,99999999' 
TABS,ioos:station:wmo:42049:1,2004-01-01T14:30:00Z,28.3507,-96.0058,2.0,236.3150987,57.69714118,-99999.0,'11111222,11111222,99999999' 
TABS,ioos:station:wmo:42049:1,2004-01-01T15:00:00Z,28.3507,-96.0058,2.0,233.0103236,51.80611257,-99999.0,'11111222,11111222,99999999' 
TABS,ioos:station:wmo:42049:1,2004-01-01T15:30:00Z,28.3507,-96.0058,2.0,227.5062033,47.69756073,-99999.0,'11111222,11111222,99999999' 
TABS,ioos:station:wmo:42049:1,2004-01-01T16:00:00Z,28.3507,-96.0058,2.0,225.1743343,39.4355284,-99999.0,'11111222,11111222,99999999' 
TABS,ioos:station:wmo:42049:1,2004-01-01T16:30:00Z,28.3507,-96.0058,2.0,241.6250727,31.01631345,-99999.0,'11111222,11111222,99999999' 
TABS,ioos:station:wmo:42049:1,2004-01-01T17:00:00Z,28.3507,-96.0058,2.0,254.0370429,36.65329453,-99999.0,'11111222,11111222,99999999' 
TABS,ioos:station:wmo:42049:1,2004-01-01T17:30:00Z,28.3507,-96.0058,2.0,258.0104611,35.23866201,-99999.0,'11111222,11111222,99999999' 
TABS,ioos:station:wmo:42049:1,2004-01-01T18:00:00Z,28.3507,-96.0058,2.0,258.7324219,36.79924184,-99999.0,'11111222,11111222,99999999' 
TABS,ioos:station:wmo:42049:1,2004-01-01T18:30:00Z,28.3507,-96.0058,2.0,242.5582706,35.67392886,-99999.0,'11111222,11111222,99999999' 
TABS,ioos:station:wmo:42049:1,2004-01-01T19:00:00Z,28.3507,-96.0058,2.0,254.9848216,41.61062965,-99999.0,'11111222,11111222,99999999' 
TABS,ioos:station:wmo:42049:1,2004-01-01T19:30:00Z,28.3507,-96.0058,2.0,249.8043892,41.07523463,-99999.0,'11111222,11111222,99999999' 
TABS,ioos:station:wmo:42049:1,2004-01-01T20:00:00Z,28.3507,-96.0058,2.0,253.3265703,39.80343327,-99999.0,'11111222,11111222,99999999' 
TABS,ioos:station:wmo:42049:1,2004-01-01T20:30:00Z,28.3507,-96.0058,2.0,257.7548899,37.62596577,-99999.0,'11111222,11111222,99999999' 
TABS,ioos:station:wmo:42049:1,2004-01-01T21:00:00Z,28.3507,-96.0058,2.0,260.5449199,49.30983269,-99999.0,'11111222,11111222,99999999' 
TABS,ioos:station:wmo:42049:1,2004-01-01T21:30:00Z,28.3507,-96.0058,2.0,252.9901848,43.34610594,-99999.0,'11111222,11111222,99999999' 
TABS,ioos:station:wmo:42049:1,2004-01-01T22:30:00Z,28.3507,-96.0058,2.0,257.1559847,43.23163888,-99999.0,'11111222,11111222,99999999' 
TABS,ioos:station:wmo:42049:1,2004-01-01T23:00:00Z,28.3507,-96.0058,2.0,257.2181053,45.74348588,-99999.0,'11111222,11111222,99999999' 
TABS,ioos:station:wmo:42049:1,2004-01-01T23:30:00Z,28.3507,-96.0058,2.0,260.5768737,45.19986836,-99999.0,'11111222,11111222,99999999' 
TABS,ioos:station:wmo:42049:1,2004-01-02T00:00:00Z,28.3507,-96.0058,2.0,252.2773707,39.91419422,-99999.0,'11111222,11111222,99999999' 
TABS,ioos:station:wmo:42049:1,2004-01-02T00:30:00Z,28.3507,-96.0058,2.0,262.1244824,35.90865216,-99999.0,'11111222,11111222,99999999' 
TABS,ioos:station:wmo:42049:1,2004-01-02T01:00:00Z,28.3507,-96.0058,2.0,267.635505,34.90971212,-99999.0,'11111222,11111222,99999999' 
TABS,ioos:station:wmo:42049:1,2004-01-02T01:30:00Z,28.3507,-96.0058,2.0,257.6764249,39.59223282,-99999.0,'11111222,11111222,99999999' 
TABS,ioos:station:wmo:42049:1,2004-01-02T02:00:00Z,28.3507,-96.0058,2.0,257.822093,36.26603094,-99999.0,'11111222,11111222,99999999' 
TABS,ioos:station:wmo:42049:1,2004-01-02T02:30:00Z,28.3507,-96.0058,2.0,254.590771,34.32378913,-99999.0,'11111222,11111222,99999999' 
TABS,ioos:station:wmo:42049:1,2004-01-02T03:00:00Z,28.3507,-96.0058,2.0,257.3345449,38.31219649,-99999.0,'11111222,11111222,99999999' 
TABS,ioos:station:wmo:42049:1,2004-01-02T03:30:00Z,28.3507,-96.0058,2.0,254.0206308,37.48845156,-99999.0,'11111222,11111222,99999999' 
TABS,ioos:station:wmo:42049:1,2004-01-02T04:00:00Z,28.3507,-96.0058,2.0,250.921485,36.62148277,-99999.0,'11111222,11111222,99999999' 
TABS,ioos:station:wmo:42049:1,2004-01-02T04:30:00Z,28.3507,-96.0058,2.0,237.7913393,37.11075855,-99999.0,'11111222,11111222,99999999' 
TABS,ioos:station:wmo:42049:1,2004-01-02T05:00:00Z,28.3507,-96.0058,2.0,236.8966327,37.6272893,-99999.0,'11111222,11111222,99999999' 
TABS,ioos:station:wmo:42049:1,2004-01-02T05:30:00Z,28.3507,-96.0058,2.0,244.6212265,39.73450516,-99999.0,'11111222,11111222,99999999' 
TABS,ioos:station:wmo:42049:1,2004-01-02T06:00:00Z,28.3507,-96.0058,2.0,242.0151031,43.68828676,-99999.0,'11111222,11111222,99999999' 
TABS,ioos:station:wmo:42049:1,2004-01-02T06:30:00Z,28.3507,-96.0058,2.0,237.5930862,41.47979388,-99999.0,'11111222,11111222,99999999' 
TABS,ioos:station:wmo:42049:1,2004-01-02T07:00:00Z,28.3507,-96.0058,2.0,242.7675299,34.57195395,-99999.0,'11111222,11111222,99999999' 
TABS,ioos:station:wmo:42049:1,2004-01-02T07:30:00Z,28.3507,-96.0058,2.0,219.4594946,39.0378752,-99999.0,'11111222,11111222,99999999' 
TABS,ioos:station:wmo:42049:1,2004-01-02T08:00:00Z,28.3507,-96.0058,2.0,245.2667709,40.70383029,-99999.0,'11111222,11111222,99999999' 
TABS,ioos:station:wmo:42049:1,2004-01-02T08:30:00Z,28.3507,-96.0058,2.0,219.7251393,37.5366088,-99999.0,'11111222,11111222,99999999' 
TABS,ioos:station:wmo:42049:1,2004-01-02T09:00:00Z,28.3507,-96.0058,2.0,224.9534657,26.29730975,-99999.0,'11111222,11111222,99999999' 
TABS,ioos:station:wmo:42049:1,2004-01-02T09:30:00Z,28.3507,-96.0058,2.0,247.9010146,27.56498685,-99999.0,'11111222,11111222,99999999' 
TABS,ioos:station:wmo:42049:1,2004-01-02T10:00:00Z,28.3507,-96.0058,2.0,255.4486737,32.39921604,-99999.0,'11111222,11111222,99999999' 
TABS,ioos:station:wmo:42049:1,2004-01-02T10:30:00Z,28.3507,-96.0058,2.0,239.3404422,34.20073099,-99999.0,'11111222,11111222,99999999' 
TABS,ioos:station:wmo:42049:1,2004-01-02T11:00:00Z,28.3507,-96.0058,2.0,242.7930181,29.15568212,-99999.0,'11111222,11111222,99999999' 
TABS,ioos:station:wmo:42049:1,2004-01-02T11:30:00Z,28.3507,-96.0058,2.0,242.8937572,29.84836511,-99999.0,'11111222,11111222,99999999' 
TABS,ioos:station:wmo:42049:1,2004-01-02T12:00:00Z,28.3507,-96.0058,2.0,256.8587399,32.59349168,-99999.0,'11111222,11111222,99999999' 
TABS,ioos:station:wmo:42049:1,2004-01-02T12:30:00Z,28.3507,-96.0058,2.0,262.7039636,31.65628532,-99999.0,'11111222,11111222,99999999' 
TABS,ioos:station:wmo:42049:1,2004-01-02T13:00:00Z,28.3507,-96.0058,2.0,247.1858313,34.99789279,-99999.0,'11111222,11111222,99999999' 
TABS,ioos:station:wmo:42049:1,2004-01-02T13:30:00Z,28.3507,-96.0058,2.0,257.2722742,36.31220731,-99999.0,'11111222,11111222,99999999' 
TABS,ioos:station:wmo:42049:1,2004-01-02T14:00:00Z,28.3507,-96.0058,2.0,247.2907035,38.10389219,-99999.0,'11111222,11111222,99999999' 
TABS,ioos:station:wmo:42049:1,2004-01-02T14:30:00Z,28.3507,-96.0058,2.0,242.2726077,37.26950094,-99999.0,'11111222,11111222,99999999' 
TABS,ioos:station:wmo:42049:1,2004-01-02T15:00:00Z,28.3507,-96.0058,2.0,238.562038,37.11870822,-99999.0,'11111222,11111222,99999999' 
TABS,ioos:station:wmo:42049:1,2004-01-02T15:30:00Z,28.3507,-96.0058,2.0,238.9034103,36.34236233,-99999.0,'11111222,11111222,99999999' 
TABS,ioos:station:wmo:42049:1,2004-01-02T16:00:00Z,28.3507,-96.0058,2.0,243.3531937,34.62778364,-99999.0,'11111222,11111222,99999999' 
TABS,ioos:station:wmo:42049:1,2004-01-02T16:30:00Z,28.3507,-96.0058,2.0,243.4268505,33.10722278,-99999.0,'11111222,11111222,99999999' 
TABS,ioos:station:wmo:42049:1,2004-01-02T17:00:00Z,28.3507,-96.0058,2.0,243.6914496,32.91972357,-99999.0,'11111222,11111222,99999999' 
TABS,ioos:station:wmo:42049:1,2004-01-02T17:30:00Z,28.3507,-96.0058,2.0,240.1178877,31.15141249,-99999.0,'11111222,11111222,99999999' 
TABS,ioos:station:wmo:42049:1,2004-01-02T18:00:00Z,28.3507,-96.0058,2.0,247.1659783,28.03711825,-99999.0,'11111222,11111222,99999999' 
TABS,ioos:station:wmo:42049:1,2004-01-02T18:30:00Z,28.3507,-96.0058,2.0,222.6926919,31.61915875,-99999.0,'11111222,11111222,99999999' 
TABS,ioos:station:wmo:42049:1,2004-01-02T19:00:00Z,28.3507,-96.0058,2.0,230.207149,33.73387763,-99999.0,'11111222,11111222,99999999' 
TABS,ioos:station:wmo:42049:1,2004-01-02T19:30:00Z,28.3507,-96.0058,2.0,222.7702679,35.99069324,-99999.0,'11111222,11111222,99999999' 
TABS,ioos:station:wmo:42049:1,2004-01-02T20:00:00Z,28.3507,-96.0058,2.0,221.2241146,36.40308366,-99999.0,'11111222,11111222,99999999' 
TABS,ioos:station:wmo:42049:1,2004-01-02T20:30:00Z,28.3507,-96.0058,2.0,232.5637956,36.84979783,-99999.0,'11111222,11111222,99999999' 
TABS,ioos:station:wmo:42049:1,2004-01-02T21:00:00Z,28.3507,-96.0058,2.0,231.8245634,28.79947222,-99999.0,'11111222,11111222,99999999' 
TABS,ioos:station:wmo:42049:1,2004-01-02T21:30:00Z,28.3507,-96.0058,2.0,234.4708668,29.99421611,-99999.0,'11111222,11111222,99999999' 
TABS,ioos:station:wmo:42049:1,2004-01-02T22:00:00Z,28.3507,-96.0058,2.0,241.1203299,23.81118435,-99999.0,'11111222,11111222,99999999' 
TABS,ioos:station:wmo:42049:1,2004-01-02T22:30:00Z,28.3507,-96.0058,2.0,233.7471977,22.45730393,-99999.0,'11111222,11111222,99999999' 
TABS,ioos:station:wmo:42049:1,2004-01-02T23:00:00Z,28.3507,-96.0058,2.0,258.6485485,24.59100852,-99999.0,'11111222,11111222,99999999' 
TABS,ioos:station:wmo:42049:1,2004-01-02T23:30:00Z,28.3507,-96.0058,2.0,266.6475528,25.65389054,-99999.0,'11111222,11111222,99999999' 
TABS,ioos:station:wmo:42049:1,2004-01-03T00:00:00Z,28.3507,-96.0058,2.0,264.0339073,28.38371716,-99999.0,'11111222,11111222,99999999' 
TABS,ioos:station:wmo:42049:1,2004-01-03T00:30:00Z,28.3507,-96.0058,2.0,257.4517172,26.05226478,-99999.0,'11111222,11111222,99999999' 
TABS,ioos:station:wmo:42049:1,2004-01-03T01:00:00Z,28.3507,-96.0058,2.0,250.295613,28.41370972,-99999.0,'11111222,11111222,99999999' 
TABS,ioos:station:wmo:42049:1,2004-01-03T01:30:00Z,28.3507,-96.0058,2.0,254.9859224,26.01815712,-99999.0,'11111222,11111222,99999999' 
TABS,ioos:station:wmo:42049:1,2004-01-03T02:00:00Z,28.3507,-96.0058,2.0,271.0444783,21.40355344,-99999.0,'11111222,11111222,99999999' 
TABS,ioos:station:wmo:42049:1,2004-01-03T02:30:00Z,28.3507,-96.0058,2.0,259.9389128,23.29825101,-99999.0,'11111222,11111222,99999999' 
TABS,ioos:station:wmo:42049:1,2004-01-03T03:00:00Z,28.3507,-96.0058,2.0,260.2090201,23.81687217,-99999.0,'11111222,11111222,99999999' 
TABS,ioos:station:wmo:42049:1,2004-01-03T03:30:00Z,28.3507,-96.0058,2.0,253.3278747,23.94661772,-99999.0,'11111222,11111222,99999999' 
TABS,ioos:station:wmo:42049:1,2004-01-03T04:00:00Z,28.3507,-96.0058,2.0,256.9060556,23.43938992,-99999.0,'11111222,11111222,99999999' 
TABS,ioos:station:wmo:42049:1,2004-01-03T04:30:00Z,28.3507,-96.0058,2.0,259.6460491,23.14688964,-99999.0,'11111222,11111222,99999999' 
TABS,ioos:station:wmo:42049:1,2004-01-03T05:00:00Z,28.3507,-96.0058,2.0,258.9288819,23.48707304,-99999.0,'11111222,11111222,99999999' 
TABS,ioos:station:wmo:42049:1,2004-01-03T05:30:00Z,28.3507,-96.0058,2.0,273.0513629,23.67355487,-99999.0,'11111222,11111222,99999999' 
TABS,ioos:station:wmo:42049:1,2004-01-03T06:00:00Z,28.3507,-96.0058,2.0,269.0920592,19.57245513,-99999.0,'11111222,11111222,99999999' 
TABS,ioos:station:wmo:42049:1,2004-01-03T06:30:00Z,28.3507,-96.0058,2.0,269.7636745,19.43016469,-99999.0,'11111222,11111222,99999999' 
TABS,ioos:station:wmo:42049:1,2004-01-03T07:00:00Z,28.3507,-96.0058,2.0,267.4794379,21.15045626,-99999.0,'11111222,11111222,99999999' 
TABS,ioos:station:wmo:42049:1,2004-01-03T07:30:00Z,28.3507,-96.0058,2.0,280.8754537,20.67123605,-99999.0,'11111222,11111222,99999999' 
TABS,ioos:station:wmo:42049:1,2004-01-03T08:00:00Z,28.3507,-96.0058,2.0,270.6361654,22.531387,-99999.0,'11111222,11111222,99999999' 
TABS,ioos:station:wmo:42049:1,2004-01-03T08:30:00Z,28.3507,-96.0058,2.0,263.7082309,19.43705996,-99999.0,'11111222,11111222,99999999' 
TABS,ioos:station:wmo:42049:1,2004-01-03T09:00:00Z,28.3507,-96.0058,2.0,277.0220888,18.56927031,-99999.0,'11111222,11111222,99999999' 
TABS,ioos:station:wmo:42049:1,2004-01-03T09:30:00Z,28.3507,-96.0058,2.0,272.7671012,20.92439007,-99999.0,'11111222,11111222,99999999' 
TABS,ioos:station:wmo:42049:1,2004-01-03T10:00:00Z,28.3507,-96.0058,2.0,268.2793148,17.98810718,-99999.0,'11111222,11111222,99999999' 
TABS,ioos:station:wmo:42049:1,2004-01-03T10:30:00Z,28.3507,-96.0058,2.0,283.5368164,18.07201704,-99999.0,'11111222,11111222,99999999' 
TABS,ioos:station:wmo:42049:1,2004-01-03T11:00:00Z,28.3507,-96.0058,2.0,271.8754144,19.5604729,-99999.0,'11111222,11111222,99999999' 
TABS,ioos:station:wmo:42049:1,2004-01-03T11:30:00Z,28.3507,-96.0058,2.0,289.8655384,24.07243237,-99999.0,'11111222,11111222,99999999' 
TABS,ioos:station:wmo:42049:1,2004-01-03T12:00:00Z,28.3507,-96.0058,2.0,266.7977637,20.23158175,-99999.0,'11111222,11111222,99999999' 
TABS,ioos:station:wmo:42049:1,2004-01-03T12:30:00Z,28.3507,-96.0058,2.0,267.6167723,22.84975711,-99999.0,'11111222,11111222,99999999' 
TABS,ioos:station:wmo:42049:1,2004-01-03T13:00:00Z,28.3507,-96.0058,2.0,278.0589518,18.11891829,-99999.0,'11111222,11111222,99999999' 
TABS,ioos:station:wmo:42049:1,2004-01-03T13:30:00Z,28.3507,-96.0058,2.0,273.764447,22.08764587,-99999.0,'11111222,11111222,99999999' 
TABS,ioos:station:wmo:42049:1,2004-01-03T14:00:00Z,28.3507,-96.0058,2.0,265.9734182,19.22745173,-99999.0,'11111222,11111222,99999999' 
TABS,ioos:station:wmo:42049:1,2004-01-03T14:30:00Z,28.3507,-96.0058,2.0,277.5950465,19.52124228,-99999.0,'11111222,11111222,99999999' 
TABS,ioos:station:wmo:42049:1,2004-01-03T15:00:00Z,28.3507,-96.0058,2.0,269.1123875,21.31255499,-99999.0,'11111222,11111222,99999999' 
TABS,ioos:station:wmo:42049:1,2004-01-03T15:30:00Z,28.3507,-96.0058,2.0,268.7845832,18.8642413,-99999.0,'11111222,11111222,99999999' 
TABS,ioos:station:wmo:42049:1,2004-01-03T16:00:00Z,28.3507,-96.0058,2.0,278.5945973,19.20565021,-99999.0,'11111222,11111222,99999999' 
TABS,ioos:station:wmo:42049:1,2004-01-03T16:30:00Z,28.3507,-96.0058,2.0,262.5712891,15.93372524,-99999.0,'11111222,11111222,99999999' 
TABS,ioos:station:wmo:42049:1,2004-01-03T17:00:00Z,28.3507,-96.0058,2.0,281.3239041,16.55220227,-99999.0,'11111222,11111222,99999999' 
TABS,ioos:station:wmo:42049:1,2004-01-03T17:30:00Z,28.3507,-96.0058,2.0,288.0733746,17.01971798,-99999.0,'11111222,11111222,99999999' 
TABS,ioos:station:wmo:42049:1,2004-01-03T18:00:00Z,28.3507,-96.0058,2.0,273.8740878,15.98652245,-99999.0,'11111222,11111222,99999999' 
TABS,ioos:station:wmo:42049:1,2004-01-03T18:30:00Z,28.3507,-96.0058,2.0,285.0892159,13.59884186,-99999.0,'11111222,11111222,99999999' 
TABS,ioos:station:wmo:42049:1,2004-01-03T19:00:00Z,28.3507,-96.0058,2.0,275.1391946,18.64494033,-99999.0,'11111222,11111222,99999999' 
TABS,ioos:station:wmo:42049:1,2004-01-03T19:30:00Z,28.3507,-96.0058,2.0,259.3965545,12.71713804,-99999.0,'11111222,11111222,99999999' 
TABS,ioos:station:wmo:42049:1,2004-01-03T20:00:00Z,28.3507,-96.0058,2.0,278.2478559,14.49996207,-99999.0,'11111222,11111222,99999999' 
TABS,ioos:station:wmo:42049:1,2004-01-03T20:30:00Z,28.3507,-96.0058,2.0,267.3760073,14.85557135,-99999.0,'11111222,11111222,99999999' 
TABS,ioos:station:wmo:42049:1,2004-01-03T21:00:00Z,28.3507,-96.0058,2.0,271.4238613,14.89459634,-99999.0,'11111222,11111222,99999999' 
TABS,ioos:station:wmo:42049:1,2004-01-03T21:30:00Z,28.3507,-96.0058,2.0,262.1370518,14.83950471,-99999.0,'11111222,11111222,99999999' 
TABS,ioos:station:wmo:42049:1,2004-01-03T22:00:00Z,28.3507,-96.0058,2.0,266.7598864,14.86375457,-99999.0,'11111222,11111222,99999999' 
TABS,ioos:station:wmo:42049:1,2004-01-03T22:30:00Z,28.3507,-96.0058,2.0,282.7342652,15.15268953,-99999.0,'11111222,11111222,99999999' 
TABS,ioos:station:wmo:42049:1,2004-01-03T23:00:00Z,28.3507,-96.0058,2.0,264.6652735,14.09102551,-99999.0,'11111222,11111222,99999999' 
TABS,ioos:station:wmo:42049:1,2004-01-03T23:30:00Z,28.3507,-96.0058,2.0,259.8528375,14.58816301,-99999.0,'11111222,11111222,99999999' 
TABS,ioos:station:wmo:42049:1,2004-01-04T00:00:00Z,28.3507,-96.0058,2.0,273.7984216,16.60647163,-99999.0,'11111222,11111222,99999999' 
TABS,ioos:station:wmo:42049:1,2004-01-04T00:30:00Z,28.3507,-96.0058,2.0,275.0249038,14.95747639,-99999.0,'11111222,11111222,99999999' 
TABS,ioos:station:wmo:42049:1,2004-01-04T01:00:00Z,28.3507,-96.0058,2.0,265.2477148,16.17559891,-99999.0,'11111222,11111222,99999999' 
TABS,ioos:station:wmo:42049:1,2004-01-04T01:30:00Z,28.3507,-96.0058,2.0,268.4084425,17.28666538,-99999.0,'11111222,11111222,99999999' 
TABS,ioos:station:wmo:42049:1,2004-01-04T02:00:00Z,28.3507,-96.0058,2.0,257.236076,19.32758133,-99999.0,'11111222,11111222,99999999' 
TABS,ioos:station:wmo:42049:1,2004-01-04T02:30:00Z,28.3507,-96.0058,2.0,273.3753381,19.87446855,-99999.0,'11111222,11111222,99999999' 
TABS,ioos:station:wmo:42049:1,2004-01-04T03:00:00Z,28.3507,-96.0058,2.0,264.8451082,15.5830164,-99999.0,'11111222,11111222,99999999' 
TABS,ioos:station:wmo:42049:1,2004-01-04T03:30:00Z,28.3507,-96.0058,2.0,279.3491579,15.75931788,-99999.0,'11111222,11111222,99999999' 
TABS,ioos:station:wmo:42049:1,2004-01-04T04:00:00Z,28.3507,-96.0058,2.0,253.35389,16.40757142,-99999.0,'11111222,11111222,99999999' 
TABS,ioos:station:wmo:42049:1,2004-01-04T04:30:00Z,28.3507,-96.0058,2.0,261.3744161,19.80397182,-99999.0,'11111222,11111222,99999999' 
TABS,ioos:station:wmo:42049:1,2004-01-04T05:00:00Z,28.3507,-96.0058,2.0,263.6503148,20.88812342,-99999.0,'11111222,11111222,99999999' 
TABS,ioos:station:wmo:42049:1,2004-01-04T05:30:00Z,28.3507,-96.0058,2.0,272.2686775,18.44445174,-99999.0,'11111222,11111222,99999999' 
TABS,ioos:station:wmo:42049:1,2004-01-04T06:00:00Z,28.3507,-96.0058,2.0,267.7328098,14.41127683,-99999.0,'11111222,11111222,99999999' 
TABS,ioos:station:wmo:42049:1,2004-01-04T06:30:00Z,28.3507,-96.0058,2.0,269.6406703,17.56034453,-99999.0,'11111222,11111222,99999999' 
TABS,ioos:station:wmo:42049:1,2004-01-04T07:00:00Z,28.3507,-96.0058,2.0,263.2121524,17.68393904,-99999.0,'11111222,11111222,99999999' 
TABS,ioos:station:wmo:42049:1,2004-01-04T07:30:00Z,28.3507,-96.0058,2.0,259.0346197,16.61329889,-99999.0,'11111222,11111222,99999999' 
TABS,ioos:station:wmo:42049:1,2004-01-04T08:00:00Z,28.3507,-96.0058,2.0,261.5110617,20.79783162,-99999.0,'11111222,11111222,99999999' 
TABS,ioos:station:wmo:42049:1,2004-01-04T08:30:00Z,28.3507,-96.0058,2.0,257.9257764,19.12302277,-99999.0,'11111222,11111222,99999999' 
TABS,ioos:station:wmo:42049:1,2004-01-04T09:00:00Z,28.3507,-96.0058,2.0,272.7039453,16.74864174,-99999.0,'11111222,11111222,99999999' 
TABS,ioos:station:wmo:42049:1,2004-01-04T09:30:00Z,28.3507,-96.0058,2.0,269.6178259,18.01039977,-99999.0,'11111222,11111222,99999999' 
TABS,ioos:station:wmo:42049:1,2004-01-04T10:00:00Z,28.3507,-96.0058,2.0,260.7646946,21.12379227,-99999.0,'11111222,11111222,99999999' 
TABS,ioos:station:wmo:42049:1,2004-01-04T10:30:00Z,28.3507,-96.0058,2.0,236.0057751,21.44501107,-99999.0,'11111222,11111222,99999999' 
TABS,ioos:station:wmo:42049:1,2004-01-04T11:00:00Z,28.3507,-96.0058,2.0,259.2242014,18.07877208,-99999.0,'11111222,11111222,99999999' 
TABS,ioos:station:wmo:42049:1,2004-01-04T11:30:00Z,28.3507,-96.0058,2.0,252.2099899,23.30430218,-99999.0,'11111222,11111222,99999999' 
TABS,ioos:station:wmo:42049:1,2004-01-04T12:00:00Z,28.3507,-96.0058,2.0,251.8159684,20.18817476,-99999.0,'11111222,11111222,99999999' 
TABS,ioos:station:wmo:42049:1,2004-01-04T12:30:00Z,28.3507,-96.0058,2.0,235.1423698,23.69061418,-99999.0,'11111222,11111222,99999999' 
TABS,ioos:station:wmo:42049:1,2004-01-04T13:00:00Z,28.3507,-96.0058,2.0,239.9445413,21.3045183,-99999.0,'11111222,11111222,99999999' 
TABS,ioos:station:wmo:42049:1,2004-01-04T13:30:00Z,28.3507,-96.0058,2.0,245.4041819,23.16145937,-99999.0,'11111222,11111222,99999999' 
TABS,ioos:station:wmo:42049:1,2004-01-04T14:00:00Z,28.3507,-96.0058,2.0,253.4378969,25.53955364,-99999.0,'11111222,11111222,99999999' 
TABS,ioos:station:wmo:42049:1,2004-01-04T14:30:00Z,28.3507,-96.0058,2.0,254.9849983,28.83441347,-99999.0,'11111222,11111222,99999999' 
TABS,ioos:station:wmo:42049:1,2004-01-04T15:00:00Z,28.3507,-96.0058,2.0,244.0634071,25.26461755,-99999.0,'11111222,11111222,99999999' 
TABS,ioos:station:wmo:42049:1,2004-01-04T15:30:00Z,28.3507,-96.0058,2.0,258.6414489,20.97070576,-99999.0,'11111222,11111222,99999999' 
TABS,ioos:station:wmo:42049:1,2004-01-04T16:00:00Z,28.3507,-96.0058,2.0,245.598038,22.39005583,-99999.0,'11111222,11111222,99999999' 
TABS,ioos:station:wmo:42049:1,2004-01-04T16:30:00Z,28.3507,-96.0058,2.0,250.1859917,24.84055756,-99999.0,'11111222,11111222,99999999' 